APRIZESAT 5

Satellite information

Favourite Embed

Satellite Type and Status

PAYLOADIN ORBIT

Key statistics

Satellite APRIZESAT 5 at a glance.

Uptime

5133

Days in orbit

Revolutions

≈ 14.8

Per day

Orbit

SSO

Sun Synchronous Orbit

Inclination

98.2

Latest

Satellite identification and parameters

Extended collection of information and parameters for APRIZESAT 5.

Object identification

Identified? True

Debris? False

Object name: APRIZESAT 5

International designator: 2011-044E

Object number (NORAD): 37792

Object ID (CCSDS): 37792

Country: UNITED STATES OF AMERICA (US)

Current information (Y/N): Y

RCS size: MEDIUM

Orbital parameters

Period: 97.288 minutes

Inclination: 98.2269 deg

SMA: 7006.995 km

Apoapsis: 665.659 km

Periapsis: 592.06 km

RAAN: 167.6453 deg

Eccentricy: 0.00525184

Argument of periapsis: 201.8701 deg

Mean anomaly: 158.0269 deg

Mean motion: 14.80147833 rev/day

Mean motion (dot): 0.00001737 rev/day2

B* drag term: 0.00023110326 1/REarth

Two-line elements (TLE)

Creation date: Sept. 4, 2025, 10:13 a.m.

Reference frame: TEME

Reference center: EARTH

Epoch: Sept. 4, 2025, 5:18 a.m. UTC

TLE line 0: 0 APRIZESAT 5

TLE line 1: 1 37792U 11044E 25247.22143401 .00001737 00000-0 23110-3 0 9993

TLE line 2: 2 37792 98.2269 167.6453 0052518 201.8701 158.0269 14.80147833756477

Live tracking on map

Real-time ground track for satellite APRIZESAT 5.

In-orbit conjunctions

There are no conjunctions computed for APRIZESAT 5, at the moment. Check back to stay up to date, as we update our databases every day.

Go to all conjunctions

Associated space launch

APRIZESAT 5 was lifted into orbit during the mission ‘Dnepr 1 | Sich-2’, on board a Dnepr space rocket.

The launch took place on Aug. 17, 2011, 7:12 a.m. from 370/13.

For more information about the launch, click the button.

Launch to space Dnepr 1 | Sich-2
Dnepr 1 | Sich-2

Agency: N/A

Status: Launch Successful

Launch date: Aug. 17, 2011, 7:12 a.m. UTC

Rocket: Dnepr

Launch pad: 370/13

Location: Dombarovskiy, Russian Federation

...

Latest news about this satellite

There are no fresh news available about this satellite. Check back as we update our databases every day.


Newsletter sign-up

Weekly statistics, charts and insights to help you stay on top of the space industry.